Weather History for Keahole Point, HI

Change the Weather History Date:

Sunday, December 12, 2010

  Actual Average Record
Temperature  
Mean Temperature 75 °F -  
Max Temperature 81 °F 80 °F 88 °F (1989)
Min Temperature 69 °F 68 °F 65 °F (1989)
Cooling Degree Days 10    
Growing Degree Days 25 (Base 50)    
Moisture  
Dew Point 65 °F    
Average Humidity 70    
Maximum Humidity 81    
Minimum Humidity 58    
Precipitation  
Precipitation 0.00 in - - ()
Sea Level Pressure  
Sea Level Pressure 29.94 in    
Wind  
Wind Speed 6 mph (SE)    
Max Wind Speed 10 mph    
Max Gust Speed -    
Visibility 10 miles    
Events      
Averages and records for this station are not official NWS values.
T = Trace of Precipitation, MM = Missing Value Source: NWS Daily Summary

Daily Weather History Graph

Daily Weather History Graph

Search for Another Location

Airport:

Trip Planner

Search our weather history database for the weather conditions in past years. The results will help you decide how hot, cold, wet, or windy it might be!

Date:

Astronomy

Dec. 12, 2010 Rise Set
Actual Time 6:49 AM HST 5:46 PM HST
Civil Twilight 6:25 AM HST 6:10 PM HST
Nautical Twilight 5:57 AM HST 6:38 PM HST
Astronomical Twilight 5:30 AM HST 7:05 PM HST
Moon 11:53 AM HST (12/12) No Moon Set
Length of Visible Light 11h 45m
Length of Day
10h 57m
Waxing Crescent, 44% of the Moon is Illuminated
Dec 12
Waxing Crescent
Dec 13
First Quarter
Dec 20
Full
Dec 27
Last Quarter
Jan 3
New

Hourly Weather History & Observations

Time (HST) Temp. Heat Index Dew Point Humidity Pressure Visibility Wind Dir Wind Speed Gust Speed Precip Events Conditions
12:53 AM 71.1 °F - 64.0 °F 78% 29.96 in 10.0 mi ENE 3.5 mph - N/A   Clear
1:53 AM 70.0 °F - 64.0 °F 81% 29.95 in 10.0 mi NE 5.8 mph - N/A   Clear
2:53 AM 71.1 °F - 64.0 °F 78% 29.93 in 10.0 mi NE 6.9 mph - N/A   Clear
3:53 AM 69.1 °F - 63.0 °F 81% 29.92 in 10.0 mi NNE 8.1 mph - N/A   Clear
4:53 AM 70.0 °F - 62.1 °F 76% 29.93 in 10.0 mi North 4.6 mph - N/A   Clear
5:53 AM 70.0 °F - 60.1 °F 71% 29.93 in 10.0 mi SE 8.1 mph - N/A   Clear
6:53 AM 70.0 °F - 60.1 °F 71% 29.94 in 10.0 mi ESE 5.8 mph - N/A   Clear
7:53 AM 73.0 °F - 61.0 °F 66% 29.96 in 10.0 mi SE 5.8 mph - N/A   Clear
8:53 AM 78.1 °F - 63.0 °F 60% 29.97 in 10.0 mi SSE 4.6 mph - N/A   Clear
9:53 AM 79.0 °F - 64.9 °F 62% 29.97 in 10.0 mi SSW 5.8 mph - N/A   Clear
10:53 AM 80.1 °F 81.9 °F 64.9 °F 60% 29.96 in 10.0 mi SSW 8.1 mph - N/A   Clear
11:53 AM 81.0 °F 82.7 °F 64.9 °F 58% 29.94 in 10.0 mi SW 10.4 mph - N/A   Clear
12:53 PM 80.1 °F 82.3 °F 66.9 °F 64% 29.92 in 10.0 mi WSW 9.2 mph - N/A   Clear
1:53 PM 80.1 °F 82.3 °F 66.9 °F 64% 29.90 in 10.0 mi SW 6.9 mph - N/A   Clear
2:53 PM 80.1 °F 82.3 °F 66.9 °F 64% 29.89 in 10.0 mi SW 6.9 mph - N/A   Clear
3:53 PM 80.1 °F 82.3 °F 66.9 °F 64% 29.89 in 10.0 mi SSW 8.1 mph - N/A   Clear
4:53 PM 79.0 °F - 66.9 °F 66% 29.91 in 10.0 mi South 6.9 mph - N/A   Clear
8:53 PM 75.9 °F - 66.9 °F 74% 29.97 in 10.0 mi ENE 3.5 mph - N/A   Mostly Cloudy
9:53 PM 75.9 °F - 68.0 °F 76% 29.98 in 10.0 mi Calm Calm - N/A   Mostly Cloudy
10:53 PM 75.0 °F - 66.9 °F 76% 29.98 in 10.0 mi ESE 4.6 mph - N/A   Clear
11:53 PM 73.9 °F - 66.9 °F 79% 29.96 in 10.0 mi East 3.5 mph - N/A   Clear